Location: Chiroubles
(46.1812°N, 4.6660°E)
Time: 19:21:40
(UTC+00:00)

USA 234 - Pass Details

Date: 15 August 2020
Orbit: 1101 x 1107 km, 123.0° (Epoch: 22 September)

Event Time Altitude Azimuth Distance (km) Brightness Sun altitude
Exits shadow 22:16:19 62° 155° (SSE) 1,227 3.1 -26.9°
Maximum altitude 22:17:28 77° 220° (SW) 1,130 3.1 -26.9°
Drops below altitude 10° 22:24:02 10° 306° (NW) 2,965 6.2 -27.4°
Sets 22:26:32 0° 308° (NW) 3,926 7.1 -27.5°
